Location: Dortmund
(51.5019°N, 7.6520°E)
Time: 18:08:45
(UTC+02:00)

ISS - Pass Details

Date: 31 March 2019
Orbit: 408 x 410 km, 51.6° (Epoch: 22 April)

Event Time Altitude Azimuth Distance (km) Brightness Sun altitude
Rises 20:59:11 0° 275° (W) 2,339 1.8 -9.7°
Reaches altitude 10° 21:01:16 10° 275° (W) 1,477 0.4 -10.0°
Maximum altitude 21:04:35 88° 4° (N) 415 -3.8 -10.5°
Enters shadow 21:07:04 17° 95° (E) 1,142 -2.2 -10.8°
